Location: Hard
(49.9417°N, 12.0858°E)
Time: 03:57:46
(UTC+00:00)

USA 81 - Pass Details

Date: 07 June 2020
Orbit: 786 x 787 km, 85.0° (Epoch: 09 July)

Event Time Altitude Azimuth Distance (km) Brightness Sun altitude
Exits shadow 00:30:18 23° 213° (SSW) 1,632 5.1 -15.2°
Maximum altitude 00:33:27 52° 281° (W) 973 4.5 -15.0°
Drops below altitude 10° 00:38:38 10° 358° (N) 2,359 7.6 -14.7°
Sets 00:41:04 0° 3° (N) 3,293 8.8 -14.6°
